This is the latest recevied weather packets stored in our database for station/object KX4O-13. If no packets are shown the sender has not sent any weather packets the latest 10 day(s).
| Time | Temp. | Humidity | Pressure | Rain* | Wind** | Luminosity | Snow |
|---|---|---|---|---|---|---|---|
| 1777769157 | 10.56° C | 55% | 1013.1 hPa | 0 mm | - | 0 W/m² | - |
| 1777768857 | 10.56° C | 50% | 1013.1 hPa | 0 mm | - | 0 W/m² | - |
| 1777768557 | 11.11° C | 50% | 1012.9 hPa | 0 mm | - | 0 W/m² | - |
| 1777768257 | 11.11° C | 49% | 1012.8 hPa | 0 mm | - | 0 W/m² | - |
| 1777767957 | 11.11° C | 49% | 1012.7 hPa | 0 mm | - | 0 W/m² | - |
| 1777767657 | 11.11° C | 49% | 1012.7 hPa | 0 mm | - | 0 W/m² | - |
| 1777767357 | 11.11° C | 48% | 1012.7 hPa | 0 mm | - | 0 W/m² | - |
| 1777767057 | 11.11° C | 51% | 1012.6 hPa | 0 mm | - | 0 W/m² | - |
| 1777766757 | 11.11° C | 50% | 1012.5 hPa | 0 mm | - | 0 W/m² | - |
| 1777766457 | 11.67° C | 48% | 1012.6 hPa | 0 mm | - | 0 W/m² | - |
| 1777766157 | 11.67° C | 47% | 1012.5 hPa | 0 mm | - | 7 W/m² | - |
| 1777765857 | 11.67° C | 46% | 1012.2 hPa | 0 mm | - | 11 W/m² | - |
| 1777765557 | 11.67° C | 46% | 1012.2 hPa | 0 mm | - | 14 W/m² | - |
| 1777765257 | 12.22° C | 45% | 1012.1 hPa | 0 mm | - | 18 W/m² | - |
| 1777764957 | 12.22° C | 44% | 1012.1 hPa | 0 mm | - | 25 W/m² | - |
| 1777764657 | 12.22° C | 44% | 1011.9 hPa | 0 mm | - | 32 W/m² | - |
| 1777764357 | 12.22° C | 43% | 1011.8 hPa | 0 mm | - | 26 W/m² | - |
| 1777764057 | 12.22° C | 43% | 1011.9 hPa | 0 mm | - | 37 W/m² | - |
| 1777763757 | 12.78° C | 42% | 1011.8 hPa | 0 mm | - | 39 W/m² | - |
| 1777763457 | 12.78° C | 43% | 1011.7 hPa | 0 mm | - | 58 W/m² | - |
| 1777763157 | 13.33° C | 43% | 1011.7 hPa | 0 mm | - | 62 W/m² | - |
| 1777762857 | 13.33° C | 42% | 1011.6 hPa | 0 mm | - | 102 W/m² | - |
| 1777762557 | 13.33° C | 44% | 1011.7 hPa | 0 mm | - | 102 W/m² | - |
| 1777762257 | 13.33° C | 44% | 1011.6 hPa | 0 mm | - | 116 W/m² | - |
| 1777761957 | 13.33° C | 42% | 1011.7 hPa | 0 mm | - | 144 W/m² | - |
* Rain latest hour (hover to see other rain measurements)
** Current wind speed in m/s (hover to see current wind gust speed)